Location: Nelson
(41.2830°S, 173.2830°E)
Time: 03:06:07
(UTC+13:00)

CZ-2C R/B - Pass Details

Date: 24 January 2019
Orbit: 785 x 870 km, 98.3° (Epoch: 16 February)

Event Time Altitude Azimuth Distance (km) Brightness Sun altitude
Exits shadow 21:48:37 10° 34° (NE) 2,486 4.6 -9.4°
Reaches altitude 10° 21:48:40 10° 34° (NE) 2,462 4.5 -9.4°
Maximum altitude 21:53:57 52° 109° (ESE) 1,040 3.0 -10.2°
Drops below altitude 10° 21:59:10 10° 183° (S) 2,437 5.7 -11.0°
Sets 22:01:33 0° 187° (S) 3,364 6.6 -11.3°
